Location: Alfortville
(48.8058°N, 2.4204°E)
Time: 17:39:12
(UTC+00:00)

Cosmos 1844 Rocket - Pass Details

Date: 24 October 2021
Orbit: 826 x 843 km, 71.0° (Epoch: 06 December)

Event Time Altitude Azimuth Distance (km) Brightness Sun altitude
Rises 19:03:45 0° 328° (NNW) 3,376 6.4 -23.7°
Reaches altitude 10° 19:06:15 10° 324° (NW) 2,438 5.7 -24.1°
Maximum altitude 19:11:38 52° 249° (WSW) 1,017 3.3 -25.0°
Enters shadow 19:15:32 19° 179° (S) 1,893 4.4 -25.6°
